Regional Weather Roundup
Issued by NWS

Home | Current Version | Previous Version | Graphics & Text | Print | Product List | Glossary On
Versions: 1 2 3 4 5 6 7 8 9 10 11 12 13 14 15 16 17 18 19 20 21 22 23 24 25 26 27 28 29 30 31 32 33 34 35 36 37 38 39 40 41 42 43 44 45 46 47 48 49 50
000
ASUS43 KLSX 312007
RWRMO

WEATHER SUMMARY FOR MISSOURI
NATIONAL WEATHER SERVICE SPRINGFIELD MO
300 PM CDT TUE MAY 31 2016

NOTE: "FAIR" INDICATES FEW OR NO CLOUDS BELOW 12,000 FEET WITH NO
       SIGNIFICANT WEATHER AND/OR OBSTRUCTIONS TO VISIBILITY.
       CURRENT SKY AND/OR WEATHER CONDITIONS ARE NOT AVAILABLE FOR
       CHILLICOTHE AND FARMINGTON.

MOZ001>031-035>038-043-044-053-054-312100-
...NORTHERN AND WESTERN MISSOURI...

CITY           SKY/WX    TMP DP  RH WIND       PRES   REMARKS
KANSAS CTY INT CLOUDY    75  64  68 CALM      29.91F
KANSAS C DTWN  MOSUNNY   79  63  57 W5        29.89F
LEE`S SUMMIT   PTSUNNY   77  64  64 CALM      29.91F
ST JOSEPH      CLOUDY    76  63  64 S8        29.90F
CHILLICOTHE      N/A     78  66  66 S7        29.91F
KIRKSVILLE     CLOUDY    80  63  55 S14       29.92F

$$
MOZ066>068-077>081-088>096-101>105-312100-
...SOUTHWEST MISSOURI...

CITY           SKY/WX    TMP DP  RH WIND       PRES   REMARKS
SPRINGFIELD    PTSUNNY   78  63  59 SE10      29.90R
JOPLIN         CLOUDY    80  67  64 CALM      29.90R
BRANSON        PTSUNNY   77  66  69 SE12      29.92F

$$
MOZ032>034-039>042-045>050-055>058-069>072-312100-
...CENTRAL MISSOURI...

CITY           SKY/WX    TMP DP  RH WIND       PRES   REMARKS
COLUMBIA       PTSUNNY   79  63  57 S9        29.92F
JEFFERSON CITY CLOUDY    81  62  52 S9        29.90F
ROLLA          PTSUNNY   77  65  66 S10       29.92F
SEDALIA        CLOUDY    79  66  64 S7        29.91F
WARRENSBURG    CLOUDY    79  64  61 S5        29.89S
OSAGE BEACH    MOSUNNY   80  65  59 VRB7      29.91

$$
MOZ051-052-059>065-312100-
...EAST CENTRAL MISSOURI...

CITY           SKY/WX    TMP DP  RH WIND       PRES   REMARKS
ST LOUIS INTL  MOSUNNY   84  63  49 S10G18    29.93F
SPIRIT OF STL  MOSUNNY   82  65  56 VRB6      29.91F
ST CHARLES     MOSUNNY   81  64  56 VRB6      29.92F

$$
MOZ072>076-082>087-097>100-106>115-312100-
...SOUTH CENTRAL AND SOUTHEAST MISSOURI...

CITY           SKY/WX    TMP DP  RH WIND       PRES   REMARKS
CAPE GIRARDEAU MOSUNNY   84  63  49 SW9       29.92F
FARMINGTON     MOSUNNY   80  66  62 SW6       29.95F
POPLAR BLUFF   SUNNY     82  66  58 S6        29.92F
WEST PLAINS    MOSUNNY   77  64  64 VRB3      29.96F

$$


USA.gov is the U.S. government's official web portal to all federal, state and local government web resources and services.